sat.trackr.live / text

‹ back to catalog

GPS BIIR-8 (PRN 16)

NORAD 27663 · 2003-005A

PAYLOAD ACTIVE UNKNOWN

§ Identity

Operator
Country
US
Launch date
2003-01-29
Launch site
AFETR
Launch vehicle
Mass (kg)
RCS (m²)
10.00

Purposes: earth_obs, nav

External: N2YO · Heavens-Above · Gunter

§ Orbital elements

Epoch: 2026-05-25T04:25:41.746944Z

Period
717.98 min
Inclination
54.8858°
Eccentricity
0.0147949
Mean motion
2.00561818 rev/d
Perigee alt
19,789.4 km
Apogee alt
20,575.3 km
Semi-major
26,560.5 km
B*
0.0000e+0
RAAN
215.8828°
Arg perigee
53.0208°
Mean anomaly
317.8223°
Rev number
17,085

§ Raw data

GPS BIIR-8  (PRN 16)1 27663U 03005A   26145.18451096 -.00000008  00000+0  00000+0 0  99912 27663  54.8858 215.8828 0147949  53.0208 317.8223  2.00561818170858

JSON: /api/v1/satellites/27663 · /tle

For live sub-satellite position, see the globe view (requires WebGL).

§ Visibility from observer

Set your observer location to see the next 7 days of passes ≥ 10°. The values pass through the URL so the page stays shareable.

No JS? Fill the form by hand. The geolocation button needs JavaScript.